GFSNE_sfc_thetae_000.txt.gz
Theta_e
301 301 301 302 300 298 298 297 293 289 291 296 301 305 309 311 309 311 311 308 305 305 306 309 311 315 315 316 316 316 318 318 317 315 314 311 309 308
298 298 299 300 299 299 297 297 297 294 291 296 296 305 305 305 307 308 308 307 302 302 302 305 307 309 311 313 313 313 314 314 313 312 310 308 307 305
296 297 298 299 299 298 298 296 295 295 293 296 298 300 302 302 303 305 307 307 306 299 299 302 304 305 307 308 308 308 309 308 308 307 307 306 305 303
293 294 294 296 297 298 298 295 295 296 294 293 297 298 299 302 303 301 303 305 306 301 299 301 303 304 303 302 302 302 302 302 302 303 303 303 302 301
292 292 293 293 294 296 296 295 295 294 296 295 294 297 298 301 299 299 298 299 303 302 299 299 301 302 301 300 299 299 298 298 298 298 298 298 299 299
289 290 290 291 292 292 293 294 294 294 295 294 293 294 296 298 298 295 293 295 294 297 300 300 299 299 299 298 297 297 297 296 295 295 294 293 294 294
287 287 288 289 289 290 291 292 293 293 293 293 294 295 295 296 293 295 294 291 290 290 291 294 298 298 297 296 296 296 295 295 294 294 293 291 290 290
284 286 287 288 288 287 287 288 289 290 289 292 292 293 294 296 297 294 290 287 287 288 287 285 290 294 294 295 294 293 293 293 293 292 291 289 288 288
284 285 286 287 287 287 287 286 286 287 286 289 290 293 293 297 297 294 291 292 289 287 289 283 285 285 289 291 292 292 292 292 291 290 289 288 287 287
284 285 285 286 287 287 287 287 288 290 289 289 290 293 296 298 298 297 293 290 287 286 285 281 283 281 284 285 290 291 290 289 290 289 288 288 287 286
284 285 285 285 286 286 286 285 286 288 290 289 290 290 290 291 292 299 289 287 283 283 282 281 281 281 283 285 285 289 289 288 289 288 289 287 286 284
284 286 284 285 285 285 285 285 284 286 288 288 288 290 290 292 289 294 292 289 284 282 284 279 279 279 276 281 285 286 287 288 288 288 287 286 285 284
284 286 288 285 285 285 285 286 286 287 287 288 288 288 289 292 292 291 292 293 286 284 285 283 280 277 278 278 282 283 284 284 285 285 285 285 284 284
284 285 286 284 283 285 284 284 284 285 288 288 288 287 287 288 291 294 292 292 293 293 285 284 281 281 279 277 276 280 281 282 282 281 282 283 282 279
284 283 281 282 282 283 285 284 284 286 286 286 288 288 289 290 291 290 284 284 284 285 284 285 284 283 282 279 276 277 277 279 281 282 282 279 278 278
283 284 283 282 284 286 286 285 285 286 286 287 288 289 291 286 285 285 282 280 278 278 282 285 283 282 280 280 278 276 277 275 279 280 279 279 278 279
281 283 283 282 283 285 286 285 286 286 287 289 288 286 286 283 282 283 282 281 279 278 279 281 283 284 282 280 278 277 278 278 279 279 278 276 277 278
282 281 281 281 280 281 282 284 286 285 287 287 287 286 284 283 281 281 282 282 278 278 279 280 280 278 277 277 281 278 279 278 277 277 277 276 277 279
281 280 280 279 279 279 279 280 281 282 283 283 283 284 284 283 282 282 281 281 278 279 279 279 278 278 275 274 275 276 278 278 276 276 278 278 278 279
281 280 279 279 279 279 278 278 279 281 281 281 281 281 281 281 281 280 280 279 278 277 276 278 279 280 280 275 274 275 278 277 276 277 276 277 278 273
280 280 280 280 279 278 278 278 278 278 280 280 280 280 281 280 279 280 279 278 278 277 277 278 276 277 277 276 271 271 272 272 276 277 277 276 274 275
281 280 280 280 279 279 279 280 279 278 278 279 280 280 280 279 277 276 276 277 277 277 273 273 275 277 277 275 272 271 271 272 269 269 270 271 275 274
280 281 282 281 281 281 280 279 278 278 278 279 279 279 279 278 278 278 277 276 274 274 274 274 275 276 275 274 273 273 270 270 272 272 272 268 269 269

GFSNE_sfc_thetae_003.txt.gz
Theta_e
301 302 301 301 302 303 303 301 297 292 293 298 299 306 311 310 310 312 312 310 306 304 306 309 313 315 316 317 317 317 317 318 319 318 318 319 319 317
298 299 299 300 300 302 301 301 300 296 293 297 298 302 308 309 310 309 310 307 305 302 302 304 308 312 313 314 314 314 315 315 316 317 317 317 316 315
296 296 297 298 297 298 299 299 298 297 293 297 299 301 302 307 306 307 307 306 308 301 299 301 303 305 308 309 310 311 311 312 313 314 314 314 314 312
294 294 295 295 296 297 297 297 297 298 295 293 297 298 300 303 304 305 304 306 305 303 300 299 300 301 303 304 305 306 307 307 308 309 309 309 310 310
292 293 293 294 293 295 295 295 297 296 296 294 294 297 298 300 301 303 303 304 303 302 299 297 299 300 301 302 303 303 303 302 302 302 303 303 304 304
291 291 290 290 291 292 293 294 295 295 295 294 294 294 296 298 299 299 296 298 298 298 299 297 297 299 301 301 302 303 302 301 299 298 297 296 297 298
287 287 288 288 288 288 289 289 290 292 293 293 292 293 293 294 294 298 297 296 292 293 293 291 295 299 302 301 304 302 300 299 298 297 296 295 294 295
283 285 286 286 287 287 287 287 287 288 287 289 291 291 293 294 296 296 296 290 289 290 290 288 291 291 297 302 300 299 298 298 297 296 295 294 293 292
283 284 285 286 286 287 287 286 286 286 285 287 285 289 292 295 296 295 295 292 292 289 289 284 286 286 286 291 296 296 296 296 295 294 293 292 290 289
284 284 285 285 286 286 287 287 288 288 289 288 288 289 291 295 294 295 296 294 287 288 289 283 283 284 285 287 293 295 294 293 293 292 291 289 288 287
284 285 285 285 286 286 285 284 285 287 289 289 289 289 289 289 290 291 291 289 283 284 285 283 281 281 284 284 285 290 292 292 291 290 289 288 287 287
285 285 284 284 284 284 284 284 283 285 286 287 289 288 289 290 288 290 289 290 286 282 285 281 281 281 279 283 284 285 285 287 287 288 287 287 286 284
283 285 286 285 285 285 285 285 284 286 286 286 286 289 288 291 291 293 291 290 287 288 286 282 280 279 280 281 284 284 285 284 285 286 287 286 285 285
283 284 285 285 285 283 283 283 284 284 285 286 287 287 288 288 291 293 294 293 290 292 287 285 281 280 279 279 279 282 284 284 285 284 284 285 285 280
284 284 284 283 283 283 283 282 282 284 284 284 285 287 289 291 291 291 290 286 285 286 287 287 285 283 284 280 278 279 280 281 283 282 282 282 282 280
284 284 283 283 283 284 285 286 284 285 284 284 286 288 291 290 289 290 285 283 282 282 285 285 286 285 283 281 280 278 280 278 281 281 281 280 279 279
282 284 284 283 283 284 287 286 285 286 285 285 287 287 287 288 287 286 283 283 279 281 281 283 284 285 283 281 278 278 278 278 280 279 279 277 278 279
283 282 281 281 281 282 284 284 286 285 286 286 286 288 286 285 284 284 284 283 280 280 280 281 281 279 279 280 281 278 278 278 279 279 279 277 276 278
281 281 280 280 280 280 281 282 283 286 286 286 287 286 286 284 283 283 284 281 280 279 279 280 280 279 276 275 277 282 279 279 279 277 278 278 277 278
281 280 280 280 279 280 280 280 282 282 283 283 284 285 285 284 283 282 282 281 281 280 279 280 281 281 280 276 275 276 281 279 277 276 277 279 274 276
281 280 281 280 280 280 279 280 281 281 282 282 282 282 283 283 283 283 282 281 280 280 278 278 280 283 280 278 274 273 273 277 279 279 279 277 275 274
281 281 282 281 281 280 281 280 280 280 281 280 281 282 282 282 281 280 280 279 279 279 276 276 278 278 278 276 273 272 272 272 273 273 274 274 275 273
279 280 280 281 281 281 280 279 279 279 279 280 280 280 279 278 279 280 279 276 276 275 275 275 277 278 277 275 273 272 271 271 272 271 271 270 271 271

GFSNE_sfc_thetae_006.txt.gz
Theta_e
293 294 294 295 296 295 295 294 291 287 289 293 292 296 297 305 306 307 308 308 306 304 304 306 310 313 316 317 318 319 320 320 320 320 319 320 320 320
293 292 293 293 294 294 294 294 295 293 289 293 294 293 295 298 305 304 305 306 304 303 302 303 305 309 312 314 315 315 317 317 317 318 318 318 319 319
291 291 291 292 291 292 293 293 292 292 289 292 295 295 293 293 296 302 303 303 305 302 300 300 301 302 304 310 311 312 313 314 314 315 316 317 318 319
289 289 289 291 290 291 291 291 291 292 291 289 292 293 292 292 293 294 301 303 300 302 300 299 299 300 300 301 305 307 309 309 309 311 313 314 316 317
288 288 288 288 288 289 289 289 290 292 291 290 290 293 293 291 290 291 293 298 300 301 298 297 298 299 299 299 300 304 305 305 304 305 307 308 310 311
288 288 287 287 286 286 287 287 288 287 288 289 289 290 291 292 290 288 288 292 293 299 298 297 297 298 298 299 298 301 305 305 304 304 301 300 302 304
285 285 285 286 288 287 286 285 285 285 286 286 287 288 288 288 287 288 287 288 290 291 293 294 293 297 299 298 299 300 302 304 303 303 302 300 298 299
283 283 284 285 285 286 286 286 285 283 283 283 284 285 286 288 288 287 286 284 288 287 289 291 288 291 292 298 299 298 299 302 303 302 301 299 299 297
281 282 282 284 285 284 285 286 286 286 284 283 281 283 284 286 288 286 285 285 289 287 288 286 286 287 287 291 294 296 298 300 302 301 299 297 296 294
282 282 282 282 283 284 283 283 284 286 286 286 284 284 285 286 287 289 287 286 287 286 285 285 283 283 285 287 293 295 297 298 299 298 297 295 293 292
283 283 283 282 284 285 284 283 282 283 287 289 288 288 288 287 287 287 284 285 285 284 285 282 281 281 283 284 286 292 293 295 296 296 295 294 292 291
284 284 285 285 285 285 283 282 281 282 283 284 284 286 288 287 288 287 285 283 284 282 284 279 280 281 279 283 284 285 286 289 293 292 292 291 289 287
281 281 282 284 284 285 285 283 282 284 283 283 284 284 285 286 286 287 287 285 285 285 282 280 279 280 280 280 282 284 284 285 284 286 290 289 289 286
281 282 283 284 284 284 284 284 284 283 284 283 283 282 284 285 286 287 287 287 289 288 285 282 278 279 280 279 278 282 283 284 285 284 284 285 285 285
282 282 284 284 284 283 284 283 283 281 281 281 282 283 284 285 286 287 286 288 287 286 286 285 281 281 282 279 279 280 280 282 284 283 283 281 278 278
282 282 281 281 282 282 283 284 283 283 281 281 282 283 285 285 286 286 284 284 282 282 284 284 283 282 280 281 281 279 280 278 282 282 282 281 281 281
282 282 281 280 280 280 281 284 281 281 281 283 282 283 284 284 285 284 283 282 280 280 280 283 284 283 282 281 279 279 279 279 281 280 279 276 278 280
281 279 277 278 278 279 279 282 281 280 280 279 280 283 284 284 283 283 283 281 280 279 279 279 279 278 279 279 282 278 278 279 279 279 278 277 276 279
279 277 277 277 277 278 279 280 280 284 283 281 280 283 282 281 282 282 282 281 280 279 279 279 278 278 275 273 276 282 277 278 278 277 278 277 276 277
280 278 277 277 278 277 278 279 280 281 281 282 284 284 281 280 280 281 280 279 278 279 278 279 278 279 277 274 273 273 281 278 277 276 276 275 277 280
278 278 279 278 277 278 278 278 279 279 280 281 281 281 282 281 281 281 278 279 278 278 277 277 279 280 276 275 272 270 272 281 280 277 277 273 273 273
276 277 278 278 279 278 277 277 277 278 279 279 278 278 280 280 280 278 278 277 278 276 274 276 277 278 275 274 270 268 269 271 276 277 276 275 274 271
274 275 276 277 278 278 278 277 276 276 277 278 277 277 276 275 277 275 274 274 274 274 274 275 277 277 275 273 271 270 269 270 271 269 268 274 274 274

GFSNE_sfc_thetae_009.txt.gz
Theta_e
291 291 292 292 293 293 293 292 289 285 286 291 291 294 296 298 302 302 305 306 305 304 303 305 307 309 310 312 314 319 320 320 321 321 321 321 321 322
291 289 290 291 292 292 292 292 291 289 285 291 292 293 294 296 298 300 301 304 303 302 301 302 303 305 306 307 309 312 317 318 319 319 319 320 320 320
288 288 288 289 289 289 290 290 289 289 286 288 291 293 292 293 295 294 299 301 301 300 299 299 300 300 301 301 302 305 309 315 316 316 317 318 320 320
287 286 287 289 287 287 287 287 287 288 287 285 288 290 290 292 292 292 293 299 299 300 300 297 298 299 299 298 298 299 300 304 311 312 314 315 317 318
286 286 286 286 285 286 286 286 287 288 288 286 286 289 289 290 290 290 290 291 297 300 298 295 295 296 298 298 299 299 299 299 302 307 308 309 311 313
285 284 284 284 283 283 284 284 285 284 285 285 284 285 287 289 288 288 287 287 288 296 298 296 294 296 297 298 298 298 298 299 299 301 304 304 305 308
283 283 284 285 287 286 284 283 283 282 283 283 282 283 285 285 286 286 285 285 286 288 289 290 290 291 293 297 298 298 298 298 298 298 301 303 303 304
280 282 282 284 284 285 285 285 284 281 281 281 281 281 282 284 287 286 285 283 280 285 285 287 287 290 290 294 296 296 297 298 298 298 298 302 302 302
280 280 281 283 283 282 284 284 284 285 284 283 281 281 281 283 285 282 285 285 283 285 285 286 278 285 284 288 290 292 293 297 297 297 297 299 302 301
281 281 281 281 282 282 281 281 281 283 284 284 284 283 284 284 283 284 284 286 286 287 286 284 277 278 278 282 289 290 293 295 296 296 296 298 300 299
282 283 283 283 284 285 283 282 281 282 285 287 287 287 287 287 286 283 281 281 281 284 285 284 281 281 277 277 281 288 289 293 295 296 297 297 298 299
281 282 283 283 284 285 283 282 281 281 282 283 283 285 287 287 287 286 284 281 280 280 281 284 280 281 279 274 277 285 286 289 293 295 296 297 297 300
280 281 282 283 284 284 285 283 282 283 283 282 282 282 283 284 285 286 286 285 282 281 284 284 280 280 278 276 276 283 284 285 286 289 294 295 295 297
280 281 282 283 283 284 284 284 284 283 283 282 282 281 282 283 284 286 286 286 286 285 285 285 282 280 278 277 278 278 283 284 285 284 285 287 289 291
283 283 284 284 284 282 283 283 283 282 281 280 280 282 283 284 285 285 286 286 286 286 286 285 283 282 281 274 277 275 280 282 283 282 282 282 282 283
282 282 280 281 280 280 280 282 283 283 282 280 280 281 284 284 283 284 284 285 284 284 285 285 284 283 281 279 281 280 280 279 282 281 279 279 279 281
280 279 277 276 277 278 279 280 279 277 282 280 280 281 281 282 283 284 284 283 281 280 280 282 283 282 282 281 279 280 279 280 281 280 280 278 279 279
279 274 274 275 275 277 277 279 280 277 278 279 278 280 281 282 282 283 283 282 281 279 280 280 279 279 279 278 281 278 279 279 280 279 279 277 277 279
277 277 273 274 276 276 277 278 278 280 282 278 280 282 282 280 282 282 281 280 277 277 279 278 278 274 273 270 275 281 278 278 278 277 278 278 277 278
277 276 276 275 275 276 276 276 278 279 280 280 283 280 280 278 278 280 279 275 277 277 276 278 277 275 274 274 273 273 281 277 278 276 275 276 278 280
274 275 275 276 276 276 275 275 276 277 276 277 278 280 277 273 277 276 273 271 272 274 276 276 276 276 276 276 272 270 272 282 280 278 275 275 274 274
272 273 273 273 274 276 276 276 275 276 276 276 276 276 277 278 277 276 274 275 275 273 273 275 276 277 273 274 269 268 270 272 277 278 279 277 274 271
270 270 271 271 271 272 273 275 275 274 275 275 275 275 275 275 275 274 273 273 274 274 274 275 276 275 273 272 270 268 267 269 269 269 270 276 278 278

GFSNE_sfc_thetae_012.txt.gz
Theta_e
291 290 290 291 291 291 291 290 287 283 285 289 290 294 294 295 296 296 299 303 303 303 303 304 306 308 308 309 310 310 313 318 321 320 321 321 322 322
290 288 289 290 290 290 290 290 289 286 283 288 289 291 293 295 297 297 295 300 301 301 300 300 302 304 304 305 306 307 307 311 310 319 319 320 321 321
288 288 287 288 287 288 288 288 287 287 284 286 289 291 291 291 293 295 296 295 296 298 296 298 298 299 298 299 301 301 303 305 307 308 317 319 320 321
286 286 286 287 286 286 285 285 286 286 285 283 286 287 288 290 291 292 294 296 295 297 298 298 298 297 296 298 296 296 298 300 301 303 304 315 317 319
285 285 285 285 283 283 283 283 284 286 285 284 283 286 287 288 289 290 291 292 293 296 296 296 296 297 296 296 295 297 297 297 297 298 299 301 311 314
283 283 283 283 282 282 282 282 283 282 283 282 282 283 285 286 287 286 286 288 288 291 295 296 296 295 295 296 296 297 297 297 297 297 297 296 297 306
282 282 282 283 286 286 284 283 282 281 281 280 280 281 282 282 283 284 284 284 286 286 288 290 290 290 292 295 296 296 296 296 296 297 297 297 297 298
280 281 281 283 283 284 285 285 284 281 280 280 280 279 280 281 283 283 284 284 282 282 284 284 286 286 289 289 293 294 295 295 296 297 297 296 297 297
280 280 280 282 283 282 283 284 284 285 283 281 280 280 280 282 282 281 281 281 282 285 286 285 284 286 285 288 292 291 292 292 293 294 295 295 295 294
281 281 281 281 282 282 282 281 282 282 282 282 282 283 283 284 283 283 282 282 282 284 287 283 284 281 275 280 288 291 291 291 292 292 293 294 294 294
282 281 282 282 283 285 282 282 282 281 284 286 286 286 286 286 286 283 281 280 278 280 283 284 285 278 277 276 280 287 288 289 290 290 291 293 295 294
280 281 282 282 283 284 282 281 280 281 282 282 282 284 285 285 286 285 283 280 279 276 280 282 281 280 282 271 274 276 278 286 289 289 290 293 294 295
279 280 281 283 284 284 284 282 281 283 282 282 282 282 282 282 283 284 286 284 281 280 282 283 279 276 280 277 272 274 277 280 285 287 290 292 294 295
280 281 282 283 283 283 283 284 284 283 282 281 281 281 281 281 282 283 284 285 286 284 284 282 279 277 274 272 274 273 273 276 284 284 285 289 292 293
282 282 282 282 281 280 282 282 282 282 281 280 279 280 281 283 283 283 282 283 284 285 286 283 282 279 278 275 278 273 272 274 276 281 280 282 284 287
280 280 277 278 276 278 280 280 281 282 282 281 280 281 282 283 282 282 282 283 283 283 285 285 284 284 278 277 278 273 274 274 274 280 279 280 281 282
280 276 275 275 276 277 278 279 281 281 278 280 280 278 280 280 281 281 282 282 281 282 282 284 285 285 282 280 278 279 278 278 275 279 279 278 279 279
278 275 271 274 274 275 276 276 277 279 279 274 271 274 275 278 277 278 281 282 281 281 279 280 280 280 279 278 282 278 279 278 276 279 279 277 276 279
276 274 273 274 274 275 275 275 275 278 281 281 279 280 281 279 282 282 280 279 279 279 279 280 280 279 275 274 275 281 277 278 276 277 279 278 276 277
273 273 272 273 274 275 274 274 275 276 276 278 280 277 278 276 274 277 278 276 276 277 276 278 278 277 274 272 270 269 281 277 277 276 275 277 279 280
271 272 271 271 271 272 273 274 275 274 275 275 275 276 274 269 274 273 274 275 274 275 275 275 275 277 276 275 269 269 275 282 279 276 276 275 274 274
270 270 270 270 269 270 270 272 274 275 273 273 274 274 275 276 276 276 274 274 274 272 273 275 277 277 274 272 266 263 269 273 277 278 279 277 274 271
268 268 268 268 268 268 269 269 273 273 273 272 272 273 273 273 273 272 271 273 274 274 274 274 274 274 272 271 270 266 268 270 270 270 269 276 279 278

GFSNE_sfc_thetae_015.txt.gz
Theta_e
291 290 288 288 289 289 290 289 285 281 282 286 286 290 292 293 295 295 295 297 299 299 299 302 305 308 308 308 309 310 310 311 315 317 322 322 322 322
290 288 288 288 289 289 289 289 288 285 281 285 287 287 289 292 294 294 295 298 297 297 298 299 300 302 303 304 306 307 307 307 307 307 312 320 321 321
288 287 287 287 287 286 287 287 286 286 282 284 286 288 287 287 289 291 293 294 295 296 296 296 297 297 299 299 299 301 301 304 305 306 307 311 320 321
285 285 285 287 285 285 285 284 284 285 283 281 284 285 285 287 288 289 291 293 293 294 295 296 297 297 296 295 295 296 297 297 299 302 304 305 309 315
284 284 284 284 282 283 283 282 283 284 284 283 282 284 285 285 286 287 288 289 291 294 293 294 295 297 296 295 296 294 294 294 294 295 298 300 303 304
282 282 282 281 281 281 281 281 282 281 281 281 281 281 282 285 284 283 283 286 287 290 292 292 293 295 296 296 294 294 297 297 296 296 295 294 295 299
281 281 281 282 285 284 282 281 281 281 280 280 280 280 280 280 280 281 281 283 285 286 287 289 289 291 294 295 296 297 296 296 295 294 295 295 294 295
280 281 281 283 282 284 284 284 284 281 280 280 280 279 280 281 281 281 280 279 279 282 285 286 287 287 288 290 294 294 295 295 296 296 295 295 295 295
280 280 280 282 283 282 282 283 283 284 283 282 280 280 279 280 281 280 281 280 280 282 282 282 282 285 288 288 291 293 293 293 293 293 293 293 293 293
280 280 281 280 281 282 282 281 281 282 282 282 281 282 282 282 283 282 281 281 281 281 282 280 282 284 279 282 288 291 292 292 292 292 291 291 291 292
280 280 280 280 282 284 281 280 280 281 284 285 286 284 285 285 285 283 281 280 278 278 277 280 279 281 281 280 282 288 290 291 290 290 290 290 290 291
279 281 282 281 283 283 281 281 279 280 281 282 282 284 285 284 285 284 283 279 279 277 277 278 277 277 277 274 274 275 277 286 287 289 289 289 290 290
279 280 281 283 283 283 284 281 281 283 281 281 281 282 282 282 282 284 284 283 280 279 280 280 276 276 280 276 272 272 279 282 283 285 287 288 289 290
279 281 281 282 282 281 281 281 283 282 282 281 281 281 281 281 282 283 284 284 285 284 283 283 280 279 279 280 280 271 270 272 278 276 277 285 287 289
282 281 282 280 280 279 280 281 281 280 280 279 279 280 281 282 283 282 283 283 284 285 285 284 281 278 277 275 273 276 271 270 273 270 272 277 281 283
280 280 278 278 277 278 279 279 280 281 280 280 280 281 282 282 281 282 281 281 281 281 285 285 285 284 281 280 278 278 270 275 275 270 270 271 277 281
278 277 275 274 274 275 276 276 277 277 279 276 277 278 279 279 280 281 281 282 280 280 281 283 285 285 284 284 280 279 272 273 272 272 273 270 272 277
276 274 271 271 272 274 273 273 274 275 277 280 278 274 275 277 277 278 281 281 280 280 281 282 283 280 279 279 283 277 277 277 273 272 271 270 272 279
273 272 270 269 270 272 273 273 273 275 277 278 279 280 280 280 280 279 280 281 280 276 277 279 280 279 277 275 276 281 277 275 272 271 271 271 274 277
272 271 270 269 270 271 271 273 274 274 273 274 275 275 276 277 277 278 278 276 275 275 275 277 278 279 278 276 274 274 281 275 271 268 271 276 278 280
270 270 270 269 268 269 268 269 273 274 271 271 272 272 273 275 277 276 275 277 277 276 276 276 276 277 276 275 271 269 274 281 278 269 273 272 273 274
268 268 268 268 268 267 267 267 270 273 272 271 271 270 270 273 273 275 274 274 272 272 273 275 277 277 275 274 268 266 267 270 276 277 278 277 274 272
267 267 266 267 267 267 268 267 267 269 272 270 269 270 268 267 270 268 267 270 269 268 271 272 273 273 272 272 270 268 267 267 269 271 270 277 279 279

GFSNE_sfc_thetae_018.txt.gz
Theta_e
292 292 292 292 291 291 290 288 286 281 281 285 285 290 291 292 293 295 294 295 297 297 298 298 300 302 304 307 308 310 311 310 310 313 314 322 323 323
291 290 289 289 289 289 289 288 287 285 281 285 286 287 289 291 293 293 293 296 294 295 296 297 298 299 299 302 304 307 308 307 308 308 308 313 321 322
288 287 286 287 286 286 287 287 286 285 282 284 286 287 287 287 289 290 291 291 293 295 295 296 296 297 297 297 298 300 303 304 305 306 307 309 313 322
285 284 284 286 284 285 285 284 284 285 283 281 284 284 284 287 287 288 290 292 291 292 293 293 294 294 295 296 295 296 298 298 299 300 302 305 306 309
283 283 283 283 282 282 282 282 282 284 283 282 281 284 284 285 286 287 287 288 290 292 292 292 293 294 295 296 295 295 295 296 295 295 296 297 300 304
282 282 281 281 280 280 280 280 281 280 281 280 280 281 282 283 284 283 283 285 286 288 290 290 291 293 294 295 295 295 295 295 295 295 295 293 293 295
282 282 281 282 284 283 282 281 281 280 280 280 280 281 281 281 280 282 281 283 284 285 286 287 289 290 291 294 296 296 294 295 296 295 294 293 293 294
280 280 281 282 282 283 284 284 283 281 280 280 279 279 279 280 282 281 280 279 278 284 284 284 287 287 289 290 292 294 295 296 295 295 294 293 293 293
280 280 280 281 282 281 282 283 283 283 282 281 280 280 280 281 281 280 280 280 279 282 283 282 285 285 287 289 290 291 293 294 294 294 294 293 292 291
279 280 279 280 281 281 281 281 281 282 282 282 281 281 282 283 283 282 282 281 282 282 283 279 283 282 284 286 288 290 291 293 293 293 292 292 291 290
280 280 280 281 282 283 281 279 280 281 284 285 285 285 285 285 285 283 280 280 278 279 281 280 281 281 282 284 286 288 289 291 292 292 291 291 290 290
280 281 281 281 282 283 282 281 280 281 282 282 283 283 285 285 285 284 283 279 279 278 279 279 280 280 279 281 284 285 285 287 290 290 290 289 290 289
279 279 280 282 282 282 282 279 279 281 281 282 282 282 282 282 283 284 284 283 281 280 282 281 279 278 280 280 281 281 282 283 284 286 287 287 288 289
278 280 281 282 281 280 280 280 281 281 280 280 281 280 281 281 282 283 284 284 285 284 284 283 282 280 280 281 280 280 279 279 281 283 283 284 286 287
281 281 281 280 279 277 279 280 279 279 279 279 279 280 281 283 284 283 283 284 284 285 285 285 283 282 281 281 281 281 283 280 281 280 280 281 282 283
280 279 277 277 275 276 277 277 277 278 278 279 279 280 281 282 282 283 282 282 281 282 284 285 285 284 281 281 281 282 278 282 281 279 279 278 280 281
278 276 274 272 272 273 275 275 275 276 276 278 279 278 278 280 280 282 282 281 280 280 281 283 285 285 284 284 281 282 282 278 280 280 278 278 279 280
275 273 271 270 269 271 271 273 274 274 275 276 278 280 277 277 279 279 280 280 279 280 280 282 283 282 281 281 284 282 280 280 279 279 278 277 277 279
272 271 270 269 269 270 270 271 272 274 275 274 275 276 278 279 279 278 279 281 280 281 282 282 282 281 277 275 278 281 280 279 278 278 277 277 277 278
270 270 269 269 269 269 269 269 269 273 272 272 272 273 274 278 277 277 277 276 277 278 277 279 280 280 279 278 276 277 281 279 277 275 277 278 279 280
269 269 269 268 268 268 268 268 268 271 271 270 271 270 272 275 276 277 276 277 277 276 275 274 275 277 277 278 274 272 274 281 278 276 276 275 275 276
267 267 267 268 267 268 268 268 268 268 271 270 269 269 270 271 271 272 271 271 272 272 274 275 276 277 275 274 270 270 271 273 277 277 279 278 276 274
266 266 266 266 267 267 267 266 267 268 269 270 269 268 266 267 269 268 269 270 271 272 272 272 273 273 273 272 271 271 270 271 272 273 272 279 279 279

GFSNE_sfc_thetae_021.txt.gz
Theta_e
293 292 292 293 293 293 293 292 288 285 287 290 290 294 295 295 296 297 296 296 297 297 296 296 297 299 300 300 301 306 308 309 309 310 311 314 316 318
294 293 293 294 294 293 292 292 290 287 284 288 290 292 293 293 294 295 295 296 295 295 294 295 297 298 297 298 298 300 301 307 308 308 309 308 312 316
293 292 291 292 290 290 291 290 289 289 285 288 290 292 292 292 292 294 294 294 294 294 294 295 295 295 295 295 295 297 298 299 304 305 307 307 308 312
289 289 289 288 289 289 289 288 288 289 287 285 288 288 289 291 291 291 291 292 293 293 294 293 293 293 293 293 294 295 296 296 298 301 301 303 305 305
288 287 287 287 286 286 286 286 286 286 286 285 284 287 288 289 288 289 290 291 291 292 291 291 292 293 293 293 294 294 295 295 294 296 296 297 298 300
287 286 286 285 285 284 284 284 284 284 285 284 284 284 285 287 287 286 286 289 289 290 290 290 291 292 293 292 293 294 295 295 294 294 295 293 293 295
286 286 286 285 285 284 284 284 284 283 282 281 281 282 283 283 283 285 285 287 288 289 289 290 291 292 292 292 292 293 294 295 295 294 295 294 293 293
283 284 284 284 284 283 283 283 283 282 281 282 281 281 282 283 284 284 284 283 282 290 287 287 290 289 291 293 291 292 293 294 294 294 296 294 293 292
283 283 283 283 284 284 283 283 283 283 282 282 281 281 282 283 284 283 283 283 283 287 287 284 288 287 291 290 290 291 291 292 293 294 294 293 292 292
283 283 283 283 282 282 282 282 283 284 284 284 284 284 285 285 285 284 284 284 286 286 287 281 287 286 289 290 289 289 290 291 292 293 293 293 292 291
283 282 282 282 283 283 283 282 283 284 285 286 286 286 286 285 286 285 283 282 282 283 287 283 285 285 287 289 291 289 290 290 291 291 292 292 292 291
282 283 283 283 282 283 283 282 280 281 282 283 283 284 286 286 285 286 286 282 282 281 286 283 283 284 282 289 290 291 291 289 289 290 292 291 291 292
281 281 283 283 283 283 281 281 281 282 282 282 283 283 284 285 286 287 286 285 283 283 286 285 284 284 283 284 288 290 291 289 290 290 289 290 289 291
280 282 283 281 280 280 280 280 280 281 282 282 282 282 283 284 285 286 287 287 288 286 287 286 284 283 283 283 283 288 289 289 289 288 287 287 286 287
282 281 280 279 278 279 279 279 279 280 280 281 282 283 284 285 286 286 286 286 286 286 286 286 286 285 285 283 283 285 286 286 287 287 289 289 290 290
280 281 278 277 277 277 279 279 280 280 279 280 281 283 285 284 284 285 284 285 283 284 286 286 286 285 285 285 284 284 286 285 287 288 288 288 289 288
279 278 276 275 276 276 277 277 279 279 279 279 281 282 283 284 283 284 284 284 282 282 283 285 285 286 286 286 283 285 285 285 287 287 284 287 289 289
276 274 273 274 274 274 275 275 277 277 278 278 279 281 281 282 282 283 283 282 282 283 283 285 285 284 284 285 286 284 285 285 285 285 285 284 287 288
273 272 272 272 273 274 274 274 274 276 277 277 278 278 280 282 282 282 283 283 282 283 284 286 285 283 281 279 282 281 283 285 285 283 284 284 285 286
271 271 271 271 271 272 273 273 274 276 276 276 277 277 278 279 281 281 281 282 283 283 283 283 284 283 282 282 281 281 281 284 283 283 282 283 283 280
270 270 270 271 271 271 272 272 273 274 275 275 276 276 277 278 278 279 280 279 280 282 281 280 280 279 282 282 279 278 279 281 282 283 282 282 282 282
269 269 269 270 270 271 271 272 273 274 274 275 275 276 276 277 277 277 278 279 279 279 279 280 281 281 281 280 277 276 277 278 279 279 280 280 281 280
268 269 269 269 270 270 271 271 271 272 273 273 274 275 275 275 277 278 278 278 278 279 278 279 278 278 277 278 277 277 276 277 279 279 279 279 279 279

GFSNE_sfc_thetae_024.txt.gz
Theta_e
297 296 295 295 294 294 293 292 289 286 289 294 295 299 299 299 299 299 299 298 297 297 297 297 296 295 296 299 300 300 302 304 307 310 309 311 312 313
296 295 294 295 294 294 293 293 291 289 287 291 292 294 296 295 296 297 297 297 296 296 295 296 295 295 297 298 297 297 298 299 302 305 309 308 309 310
294 293 293 294 293 293 293 292 291 290 287 290 292 294 294 294 295 296 297 296 297 295 294 295 294 295 296 295 295 295 295 296 297 300 303 307 307 308
292 292 291 290 291 292 291 291 291 291 289 287 290 291 292 294 294 294 293 294 295 294 294 294 295 295 294 293 293 293 294 294 296 297 298 301 304 304
291 290 290 290 290 290 290 289 289 289 289 288 287 290 291 292 291 292 292 293 293 294 293 292 293 293 293 292 292 293 293 294 294 294 295 296 299 300
290 290 289 289 289 288 288 288 287 287 288 287 287 287 289 290 291 289 289 292 291 292 292 291 291 292 292 293 293 293 293 293 293 294 294 293 293 294
288 288 288 288 286 286 286 286 287 286 286 284 283 284 285 285 285 287 286 288 290 291 291 291 292 293 294 292 292 292 292 292 293 294 294 293 293 293
286 287 287 287 287 286 285 285 284 283 282 282 282 282 283 285 286 285 286 286 284 291 290 290 291 291 292 294 292 292 292 293 293 293 294 293 293 294
287 286 286 286 286 285 284 284 284 283 283 283 282 282 283 284 285 284 285 285 285 288 288 287 291 289 291 290 291 291 291 291 292 292 292 292 292 293
286 286 285 284 284 283 283 283 284 284 285 285 285 286 286 286 286 286 286 286 287 288 288 284 289 288 291 291 290 291 290 290 290 291 292 292 293 292
283 284 284 284 284 284 284 283 284 285 286 286 286 286 286 286 286 287 285 284 284 285 289 286 287 287 289 290 293 290 290 290 289 291 291 292 293 292
283 284 284 284 283 283 283 283 282 282 283 285 285 286 286 286 285 287 287 283 284 283 287 285 285 285 283 290 291 292 293 289 289 290 290 291 292 294
281 282 284 283 282 281 281 282 281 282 282 283 284 285 286 286 287 288 288 287 284 284 287 286 286 285 285 285 289 291 291 292 293 292 289 291 291 292
281 283 284 281 280 280 280 281 280 280 283 283 284 285 285 286 287 288 288 288 289 287 288 287 286 285 285 284 284 289 291 292 291 291 291 291 289 289
282 281 281 280 279 280 280 279 280 282 281 281 282 283 285 286 286 287 288 288 288 288 288 288 288 287 286 285 285 287 287 289 289 289 289 290 290 290
280 282 280 279 280 280 281 281 282 282 281 281 282 284 286 287 285 287 286 287 285 285 288 289 287 286 285 285 286 285 288 286 289 289 290 289 291 292
279 280 279 278 278 279 279 280 281 281 280 282 282 283 284 286 284 285 284 285 284 284 285 286 287 286 286 286 285 286 286 287 289 289 288 288 290 290
278 276 276 275 276 277 278 278 279 279 279 280 281 282 281 284 284 285 284 284 283 285 285 287 286 285 285 285 286 285 287 287 288 288 288 285 287 290
275 275 274 274 275 276 276 277 277 278 279 279 280 280 280 281 282 283 284 285 284 284 285 287 286 285 282 281 283 282 285 287 288 287 286 285 285 288
274 273 273 274 274 274 275 275 276 277 278 278 279 279 279 280 280 280 281 282 283 284 285 285 285 285 283 283 284 281 281 283 286 286 285 286 284 280
272 273 273 273 274 274 275 275 276 277 277 277 278 278 279 279 279 280 280 280 281 282 282 281 281 281 285 285 282 280 281 282 283 285 286 284 283 284
272 272 273 273 273 274 274 275 276 276 276 276 277 278 278 279 279 279 280 280 280 281 281 282 283 283 283 281 281 279 280 281 281 280 280 280 281 282
272 272 272 273 273 273 273 274 275 275 275 276 276 277 278 278 279 280 280 280 280 281 280 281 282 282 280 281 281 280 278 280 282 281 280 280 280 281

GFSNE_sfc_thetae_027.txt.gz
Theta_e
297 296 295 295 295 295 294 293 289 286 288 294 294 300 302 302 302 301 301 300 299 298 298 299 298 298 298 297 298 299 301 302 303 305 307 310 311 311
296 296 296 296 296 295 293 293 292 289 286 291 293 296 297 296 298 298 298 299 297 297 297 297 298 297 297 296 296 298 299 299 299 300 303 305 310 310
294 294 293 294 294 293 294 294 293 292 288 290 292 295 296 296 296 298 298 298 298 296 295 296 296 296 295 295 296 298 297 296 296 296 298 300 303 308
293 293 291 291 291 292 291 291 291 291 290 288 291 291 293 295 295 296 294 295 297 295 296 295 295 295 294 294 295 294 294 294 294 294 294 296 298 301
291 290 290 290 289 290 290 290 290 289 290 289 288 291 292 293 293 294 294 295 294 295 294 294 294 294 295 295 294 293 293 292 292 293 293 294 295 296
290 290 289 289 289 289 289 289 288 288 288 288 288 289 290 291 292 290 290 293 293 293 293 292 293 293 293 293 293 293 293 292 292 293 292 292 292 294
288 289 289 290 288 287 286 286 286 285 286 286 286 287 287 286 287 289 288 290 291 292 292 293 294 293 294 293 293 293 292 292 293 293 292 292 292 293
286 287 289 289 288 287 287 286 285 283 282 283 283 283 284 285 286 286 287 286 284 292 289 290 292 291 292 294 292 292 291 293 292 292 292 292 293 293
286 287 286 287 287 287 286 285 285 285 283 283 282 282 283 285 285 285 285 286 285 288 289 287 292 290 293 291 291 291 291 291 292 292 292 291 291 291
286 285 285 285 286 285 284 284 284 285 286 286 285 285 286 288 287 287 287 287 288 289 290 284 290 289 291 292 291 291 291 290 291 291 291 290 290 291
283 284 284 284 285 285 284 283 283 285 287 287 287 287 286 286 287 286 284 282 283 285 289 287 288 288 289 290 292 291 291 290 290 290 290 290 290 291
283 283 283 284 284 284 284 282 281 282 284 284 285 286 286 287 286 286 285 282 282 282 287 285 286 287 284 290 291 292 292 290 290 290 290 290 290 292
281 282 284 284 282 282 281 281 281 283 282 282 283 285 286 287 288 288 288 286 283 283 287 286 286 287 286 286 289 291 292 292 292 292 290 290 290 291
280 283 284 282 281 281 280 281 281 281 282 283 283 284 285 287 288 289 289 289 289 287 289 288 286 286 285 285 284 289 290 291 292 292 291 292 289 290
282 281 281 281 281 281 282 281 280 281 283 282 282 283 285 287 288 288 289 289 289 289 289 289 287 287 287 285 284 286 287 290 291 290 289 288 288 289
280 280 281 280 281 281 282 282 283 283 282 282 282 284 286 287 287 287 286 287 286 286 289 289 288 287 285 286 285 285 287 285 289 290 288 287 288 290
278 280 279 278 278 279 280 281 282 282 281 282 282 283 283 284 286 287 286 285 284 284 285 288 288 288 287 286 284 286 286 287 289 289 288 287 288 289
277 277 276 276 275 277 277 278 280 279 279 280 281 281 281 282 282 285 286 285 284 284 285 287 287 284 284 284 286 284 286 286 288 289 288 286 287 291
276 275 275 274 275 275 277 277 277 279 280 279 280 280 280 280 281 282 283 284 284 285 286 287 287 286 282 280 283 283 284 286 287 287 288 286 285 287
275 274 274 274 275 274 275 275 276 278 278 278 279 280 280 280 281 280 280 281 281 283 284 286 284 282 281 280 282 281 282 283 284 284 286 287 285 281
274 274 274 274 274 274 275 276 277 277 277 277 278 279 279 280 280 280 280 281 281 282 281 281 282 282 284 286 282 281 281 282 282 283 285 285 283 284
273 273 273 274 274 274 275 275 276 276 276 276 277 278 279 280 279 280 280 280 280 281 281 283 284 283 283 282 280 280 280 281 282 281 281 280 280 279
273 273 274 274 274 274 273 274 274 275 275 275 276 277 279 278 279 280 280 280 280 280 280 281 282 283 281 281 281 280 279 280 282 280 280 281 281 281

GFSNE_sfc_thetae_033.txt.gz
Theta_e
291 291 291 291 293 293 293 291 287 282 282 286 286 291 293 295 297 297 298 299 299 298 298 300 301 301 300 299 299 299 299 299 299 300 302 303 304 307
290 289 289 290 291 292 292 291 291 288 283 286 289 289 292 293 296 296 296 296 297 298 297 298 299 300 300 300 300 299 298 298 297 297 299 301 301 302
289 289 288 289 287 287 288 287 288 289 285 287 289 291 288 289 291 293 295 294 294 297 296 297 297 297 298 298 298 298 298 297 296 296 297 299 299 300
285 284 285 287 284 285 285 284 284 284 283 281 282 284 285 287 287 288 291 293 293 295 296 296 296 296 296 295 295 295 296 296 296 296 296 296 297 297
284 284 283 283 283 283 284 283 283 285 282 280 280 282 283 284 286 286 286 287 290 294 293 294 295 296 296 295 295 294 294 294 293 294 295 295 295 295
283 283 283 283 282 283 284 283 283 281 280 279 279 280 281 283 284 282 282 284 285 289 291 290 291 293 295 295 294 294 294 294 293 293 292 291 291 293
281 282 282 284 287 287 285 283 281 279 278 278 278 278 278 278 279 280 279 280 281 284 284 285 285 286 287 291 293 294 294 294 294 293 293 292 291 291
279 280 281 283 284 285 286 285 284 281 280 279 279 277 278 279 280 278 278 277 277 282 281 279 283 283 285 286 290 292 293 293 293 293 293 292 292 292
278 279 279 281 282 282 283 284 284 285 283 281 278 278 278 280 280 279 278 277 278 280 280 280 277 280 283 288 291 292 292 292 292 292 291 291 291 290
279 279 278 279 280 281 280 280 281 282 283 283 282 281 282 282 282 283 282 283 283 282 283 279 280 281 281 283 289 292 292 292 292 291 291 290 290 290
280 279 279 279 281 283 281 278 279 280 284 285 286 286 286 286 287 285 281 280 278 279 279 280 280 281 279 280 282 289 290 291 291 291 291 291 290 290
278 279 280 280 281 282 280 279 276 277 278 279 280 282 283 283 284 283 281 279 279 279 282 279 279 278 274 278 283 284 283 288 290 291 291 291 291 288
276 277 278 280 280 281 282 280 279 280 280 280 279 279 280 281 282 283 284 282 280 280 283 282 277 278 278 278 278 280 280 282 284 286 290 290 291 290
275 276 278 280 281 281 281 282 282 281 280 278 278 279 279 281 283 283 284 286 286 285 284 284 282 281 280 278 278 280 279 282 281 282 283 286 289 290
276 278 279 280 279 279 280 280 280 280 280 279 279 279 280 282 283 283 286 284 283 285 286 285 284 284 283 281 278 277 279 280 279 279 279 284 285 278
277 277 277 278 277 277 278 278 279 278 278 277 278 279 281 280 278 281 280 282 276 277 283 284 284 284 283 282 282 280 278 278 281 282 285 286 284 284
276 276 275 274 274 275 275 276 277 277 277 277 277 278 279 279 279 279 277 277 277 280 278 280 281 282 284 282 281 281 280 278 281 281 284 284 285 286
275 272 271 272 272 273 273 274 275 275 276 276 277 277 276 277 278 279 277 274 273 276 277 280 283 283 282 283 285 282 281 281 280 282 284 282 283 281
272 272 270 271 272 272 272 273 273 275 276 275 275 275 276 277 277 275 276 276 273 275 280 277 276 274 274 272 279 283 278 281 283 281 284 284 282 285
271 271 270 271 272 271 272 272 272 273 272 273 273 273 273 276 275 275 275 274 276 275 277 277 274 273 272 272 276 275 282 275 276 276 276 282 280 283
268 270 271 271 271 271 270 270 270 270 270 270 270 271 272 274 274 276 275 274 274 276 276 274 278 276 276 274 275 269 270 282 280 275 276 274 279 279
263 267 270 271 270 270 270 269 269 268 267 268 268 269 270 273 273 274 274 274 273 270 272 276 278 279 274 276 273 265 268 277 278 281 281 280 277 276
260 264 266 267 268 269 270 268 268 265 266 266 266 267 268 270 271 272 273 273 273 271 273 274 276 276 275 277 275 269 269 269 274 273 272 281 281 281

GFSNE_sfc_thetae_036.txt.gz
Theta_e
289 289 288 289 289 289 289 290 288 282 282 284 284 289 289 291 294 294 296 296 296 296 297 298 298 300 302 301 300 300 300 299 298 298 298 300 302 303
291 290 288 288 288 288 290 289 289 286 283 285 286 287 289 292 293 294 295 295 295 295 295 297 298 299 299 299 299 299 299 298 298 297 297 297 300 301
285 284 284 286 284 284 284 284 283 284 282 283 286 288 286 285 287 289 293 294 294 294 294 295 297 297 298 298 299 299 300 299 298 297 296 296 298 299
283 283 284 284 282 282 282 281 282 283 281 279 281 282 282 283 284 284 287 289 290 294 295 295 295 296 296 296 296 296 297 297 297 297 296 296 296 296
282 282 282 282 280 281 281 281 282 284 281 280 279 280 281 282 282 284 284 285 288 292 292 292 294 295 296 295 295 295 295 294 294 294 295 295 296 295
282 281 281 280 280 280 282 281 282 280 279 278 278 279 279 281 280 280 279 281 282 287 289 289 290 292 292 293 294 295 294 294 294 293 293 292 292 294
280 280 281 282 283 283 282 282 281 279 279 279 278 278 277 277 277 278 278 278 279 282 282 283 284 285 286 289 291 294 294 294 294 293 293 292 291 292
278 279 279 281 280 282 283 284 283 280 279 278 279 278 278 277 278 277 277 275 274 280 280 278 282 282 284 286 290 291 292 293 293 293 293 292 292 291
278 278 279 281 280 280 281 282 282 283 282 281 280 279 278 278 278 277 276 276 276 280 279 278 276 278 282 286 290 291 291 292 292 292 292 291 291 290
279 279 278 278 278 279 279 280 280 280 281 281 281 280 280 281 280 281 280 278 280 283 280 277 276 278 278 281 288 290 291 291 292 292 291 291 290 290
279 279 278 277 280 281 280 278 279 279 282 283 283 284 285 285 284 283 281 280 279 279 277 278 278 276 276 279 281 287 289 290 291 291 291 291 291 290
277 277 279 278 280 280 279 278 277 278 278 278 278 280 281 281 283 281 280 277 277 276 279 278 276 277 274 277 281 282 282 287 289 290 291 291 291 288
275 275 276 279 281 281 281 279 279 280 280 280 280 279 279 280 281 282 282 281 280 279 282 281 276 276 279 276 276 277 277 278 280 282 289 290 291 290
274 275 277 280 279 279 279 280 281 280 279 279 278 278 279 280 282 283 284 285 285 283 284 284 281 278 275 275 275 277 276 278 276 278 279 285 288 289
276 278 279 278 278 277 279 279 278 278 277 276 277 279 280 282 282 282 284 284 284 285 285 285 284 284 282 280 280 280 277 276 274 274 274 277 281 282
276 276 276 276 276 276 276 277 277 277 277 276 277 278 280 280 279 280 279 277 278 279 281 283 285 284 282 282 282 280 282 279 274 281 281 276 283 285
271 270 273 273 273 274 274 275 276 276 275 276 276 277 277 278 279 278 275 275 275 276 278 279 279 283 284 284 280 281 280 281 277 279 278 283 284 285
270 266 269 270 270 272 271 272 273 274 274 275 274 274 275 276 277 276 274 272 271 274 277 280 280 282 282 282 284 282 282 281 277 277 281 282 283 285
265 266 267 269 270 271 271 271 271 272 273 272 272 272 273 274 275 273 274 274 272 274 278 274 273 272 270 268 279 282 277 275 280 281 280 282 281 283
266 264 267 269 270 270 270 270 270 270 269 269 270 270 271 272 273 274 274 272 271 274 276 275 273 273 272 270 273 274 282 271 274 271 276 279 278 283
265 265 264 269 269 269 268 268 266 266 266 265 267 268 269 271 271 273 272 272 269 273 272 271 273 275 275 271 271 270 268 280 280 277 275 275 277 278
261 264 264 266 266 267 267 266 266 265 265 265 264 265 266 269 270 271 271 269 270 268 270 273 276 277 274 276 272 268 272 277 278 280 280 279 276 274
259 261 260 260 264 265 267 266 265 262 264 264 264 265 264 266 268 268 268 268 269 268 270 272 274 276 275 276 275 267 267 266 270 272 269 280 281 281

GFSNE_sfc_thetae_039.txt.gz
Theta_e
288 289 290 289 289 288 288 289 285 280 281 284 283 287 288 289 291 291 292 296 295 295 295 295 298 298 299 301 301 301 302 302 300 299 299 300 301 302
288 286 285 285 285 284 285 285 284 282 279 283 284 285 287 290 289 287 290 296 296 295 293 293 295 298 298 297 297 298 299 300 299 298 297 297 297 300
282 282 283 284 283 284 282 282 282 282 279 281 284 285 284 282 284 285 287 287 291 295 294 294 293 294 296 297 296 296 296 297 299 298 298 297 297 298
281 281 282 283 281 280 280 280 280 280 280 279 280 280 280 282 282 282 286 288 286 291 293 295 294 294 294 295 295 296 297 297 297 298 297 296 296 296
281 280 280 280 279 279 279 279 280 282 280 280 279 280 280 280 281 281 282 282 286 288 289 290 291 294 295 294 295 295 295 295 295 296 296 296 296 296
281 280 280 279 279 279 279 280 281 281 280 280 279 279 280 280 279 278 278 280 280 284 286 288 290 290 292 293 294 295 295 295 294 294 293 292 293 294
280 280 280 281 283 282 280 279 278 280 279 278 278 278 278 277 277 278 277 277 278 280 280 281 283 285 285 288 289 292 294 294 294 294 293 292 291 292
279 279 279 281 280 282 281 282 281 278 278 277 277 277 277 277 277 277 276 275 274 279 278 277 281 281 283 284 288 290 291 292 293 293 293 292 292 291
278 278 279 280 280 279 280 281 281 282 281 279 278 278 278 278 278 276 276 276 276 278 278 278 276 277 282 284 288 290 291 291 291 292 292 292 291 290
278 278 278 277 278 278 279 279 279 280 281 281 280 280 281 281 280 280 279 279 279 279 282 278 276 277 279 279 286 287 289 291 291 291 291 291 290 290
278 278 277 276 278 281 279 277 278 278 282 283 283 283 283 283 284 282 280 278 276 277 277 277 278 275 275 278 280 286 287 289 290 291 291 291 291 290
276 277 278 278 279 281 279 277 276 278 279 279 279 280 281 281 282 280 277 277 276 273 278 277 277 277 273 275 276 277 278 287 289 290 290 291 291 287
275 275 276 279 280 280 280 278 278 279 279 280 280 280 280 280 279 280 280 279 277 277 280 279 275 275 277 275 275 276 277 277 278 281 288 289 290 289
275 276 277 279 279 278 278 279 279 278 278 277 278 279 279 280 282 282 282 283 283 282 283 283 279 277 278 274 277 276 276 274 274 274 275 282 287 289
276 277 278 277 277 277 277 278 277 276 276 275 275 277 279 280 282 282 283 284 284 285 285 285 284 283 282 280 280 280 281 279 273 272 272 274 276 282
273 273 272 275 274 275 275 275 276 275 275 275 275 277 279 279 279 281 280 280 278 278 282 281 284 284 282 282 282 281 281 279 274 273 280 274 280 281
267 266 268 270 271 272 272 273 274 274 273 273 274 274 275 277 278 279 277 276 274 275 277 278 281 284 284 284 281 281 278 279 278 277 277 274 276 280
267 263 260 261 267 270 270 270 271 271 271 272 272 272 273 273 275 276 276 273 272 275 276 277 275 279 282 280 284 282 281 281 280 278 277 280 281 279
263 262 259 261 263 269 269 269 269 269 270 269 270 270 271 272 273 274 274 273 273 275 276 278 276 271 269 266 275 281 277 275 272 271 279 281 281 280
265 262 260 262 264 268 269 268 268 266 266 266 267 267 268 270 271 272 272 269 270 272 273 274 274 276 276 272 273 271 281 277 276 274 271 272 276 282
264 264 261 262 263 265 265 265 263 263 264 263 264 265 265 267 269 270 270 267 267 271 270 269 271 275 275 273 269 269 272 279 279 277 277 274 275 279
260 263 263 263 260 261 260 261 264 262 263 263 263 263 263 265 267 268 269 268 268 268 269 272 274 275 272 273 271 268 274 276 278 278 280 279 273 271
260 261 259 258 259 258 262 260 261 259 262 263 263 263 262 263 266 266 266 267 268 267 268 269 272 273 272 273 273 270 266 269 270 270 268 278 281 281

GFSNE_sfc_thetae_042.txt.gz
Theta_e
287 287 287 287 289 288 287 287 284 278 279 282 283 288 289 290 291 291 290 292 296 296 295 295 296 297 299 301 301 301 305 306 305 304 305 306 306 307
285 283 283 283 283 283 283 285 285 283 278 282 283 285 288 289 290 289 288 291 292 295 295 293 294 295 295 298 298 298 298 300 301 300 299 301 303 303
282 282 282 283 283 282 282 281 281 281 278 280 282 285 285 286 286 286 287 288 288 290 293 294 294 293 293 294 296 295 295 296 297 298 298 298 299 301
282 281 281 282 279 279 279 279 279 280 279 278 281 282 282 283 283 283 285 286 286 287 291 291 293 294 293 292 294 295 295 295 295 295 296 297 297 299
281 280 280 280 278 279 279 279 279 281 282 281 281 281 281 282 282 283 282 283 285 287 287 288 290 291 294 294 294 294 294 295 294 294 295 295 297 298
281 281 280 279 279 279 279 278 279 279 279 279 279 280 281 282 281 280 280 281 282 284 285 286 287 289 291 292 294 294 294 294 294 294 294 293 293 295
281 281 281 282 284 283 281 279 278 278 278 278 277 278 278 279 278 280 279 279 280 282 282 282 283 285 287 288 289 292 294 294 294 294 294 293 293 293
279 280 280 281 280 282 281 281 280 278 277 277 277 277 278 279 279 279 278 277 276 281 280 280 283 283 284 286 287 289 291 292 294 294 294 293 292 292
277 277 278 279 279 278 279 280 280 281 280 280 278 278 278 280 280 279 278 278 278 280 280 279 281 281 284 285 287 288 290 290 291 292 293 292 291 290
277 277 277 277 277 278 278 278 279 279 280 280 279 280 280 281 281 281 280 279 280 281 281 277 282 281 283 283 285 287 288 289 290 291 291 291 291 290
277 277 277 277 278 281 280 278 278 279 282 283 283 284 283 283 283 281 279 279 276 279 280 280 280 279 280 282 283 285 287 288 289 290 290 290 291 290
276 277 278 278 279 280 278 277 275 278 279 279 281 281 282 282 282 281 280 277 278 276 279 279 279 279 278 280 281 283 283 286 288 289 290 291 291 291
275 276 277 278 279 279 279 277 277 279 278 278 279 280 281 281 281 281 280 278 277 277 281 281 278 278 280 280 280 282 281 282 284 287 289 290 290 290
275 276 276 278 278 278 277 278 278 277 277 277 276 277 278 279 281 282 282 281 282 280 283 283 281 280 280 278 279 281 282 281 281 282 283 283 286 289
275 275 276 276 276 276 276 277 276 275 275 274 274 275 277 279 281 281 283 284 284 283 283 284 283 282 282 280 281 281 282 283 280 281 280 282 284 284
272 271 271 274 271 273 274 274 274 274 273 273 273 275 277 277 278 280 280 281 280 281 284 284 285 284 283 282 282 282 283 281 281 282 281 281 282 284
266 265 267 267 269 270 271 272 272 272 271 271 272 273 273 275 276 279 279 278 277 278 280 282 283 284 285 284 282 282 282 282 283 283 281 280 282 284
267 262 258 258 262 268 269 269 270 269 269 270 270 271 271 272 274 276 276 276 275 277 278 279 278 281 282 281 283 282 282 282 282 282 281 280 281 284
264 262 256 256 260 266 268 268 268 267 268 267 268 268 269 271 272 273 273 274 274 275 276 278 279 276 273 273 276 282 279 279 276 276 278 281 281 283
265 263 260 260 263 266 267 267 267 266 265 265 266 265 266 268 270 271 271 270 271 273 274 275 275 276 276 275 276 277 280 278 277 276 276 277 278 280
265 265 262 263 264 264 260 260 260 264 263 263 263 264 263 266 268 269 270 268 268 271 271 272 273 275 276 277 274 275 276 279 279 278 278 277 276 279
263 264 265 264 262 261 258 256 259 261 263 264 263 263 263 264 266 267 267 267 269 269 269 272 275 277 277 276 275 273 276 277 279 278 280 279 277 274
262 263 262 260 260 259 263 259 259 256 261 263 263 264 263 263 265 266 267 267 268 268 268 270 272 274 275 275 275 274 273 275 276 276 277 278 280 281

GFSNE_sfc_thetae_045.txt.gz
Theta_e
296 295 295 295 294 292 292 290 286 282 284 288 288 292 292 293 293 294 294 294 293 293 295 296 296 296 296 298 300 302 303 312 311 312 313 313 314 316
294 291 290 291 290 290 289 289 288 285 282 286 287 289 290 289 291 291 292 293 292 292 292 293 295 295 295 296 297 298 299 301 303 306 308 308 309 310
290 289 288 289 288 287 287 286 285 285 281 284 286 288 288 288 289 291 292 292 292 291 290 290 292 294 294 294 295 296 296 297 298 299 299 301 303 304
288 288 287 286 286 286 285 284 284 284 282 280 284 285 286 288 288 289 289 290 291 290 289 289 289 290 292 293 294 294 295 294 295 295 296 297 297 299
287 286 286 286 285 285 284 284 284 284 283 281 281 284 284 285 285 287 288 289 289 289 289 288 288 289 289 292 293 293 293 294 294 294 294 294 295 295
286 286 286 285 285 284 283 283 283 281 281 280 280 281 282 284 283 282 283 286 287 288 288 287 287 288 288 289 292 294 294 294 294 294 293 293 293 294
286 285 285 284 283 283 282 282 282 280 279 279 278 279 279 280 280 282 281 282 285 287 286 287 288 289 289 289 290 291 294 294 294 294 294 293 292 293
282 282 282 281 281 281 280 280 280 279 278 278 279 278 279 280 281 280 280 280 279 286 286 285 289 287 289 290 290 288 289 291 294 294 294 293 293 292
281 280 280 280 280 280 280 280 281 281 281 281 279 280 279 281 281 281 281 281 280 283 284 282 287 286 289 288 287 288 289 289 290 292 293 293 292 291
280 280 280 280 280 279 280 281 280 281 281 281 282 283 283 283 283 282 282 282 283 284 284 278 285 285 289 289 287 287 287 288 289 290 291 292 291 290
280 280 280 279 279 280 280 279 279 279 282 282 282 283 283 284 285 284 282 280 279 281 284 281 283 285 287 288 290 287 287 287 288 289 290 291 291 290
280 280 279 279 279 279 279 278 277 278 279 280 281 282 283 284 283 284 283 280 279 280 284 281 283 283 282 288 289 290 290 286 287 288 289 290 290 292
279 278 279 278 278 278 278 278 278 278 278 279 279 281 282 283 284 285 285 283 280 280 284 284 283 284 283 285 288 290 291 290 290 290 288 290 290 291
278 278 278 277 277 277 277 277 277 277 278 277 277 278 279 280 282 283 284 285 285 283 285 284 283 283 283 283 283 287 289 290 290 289 290 289 288 290
279 277 276 276 275 276 275 275 276 276 275 275 275 277 278 280 281 283 285 286 286 285 284 285 284 285 285 283 283 285 285 287 289 289 288 289 290 291
277 277 274 274 274 274 275 276 276 274 273 274 275 276 278 279 280 282 282 283 283 284 286 285 285 285 284 285 285 285 286 284 287 288 288 287 287 288
275 275 275 274 273 274 275 274 274 273 272 274 274 275 276 277 279 280 281 281 281 281 283 285 285 287 286 286 285 285 285 286 288 287 286 286 288 290
275 274 273 272 272 272 273 273 273 271 271 273 273 274 274 275 276 279 279 279 279 280 281 282 284 285 284 284 284 285 286 286 285 285 284 282 283 287
275 274 273 272 272 272 272 272 271 271 270 271 272 272 273 274 276 276 277 278 278 279 280 282 282 281 280 280 283 282 284 284 283 283 283 282 282 284
275 275 274 273 272 272 272 271 271 271 270 270 271 271 271 273 274 274 275 275 276 277 278 280 281 280 279 278 279 282 281 282 282 282 282 283 284 281
277 275 275 274 273 273 272 271 271 270 269 269 270 270 270 271 272 273 274 272 273 275 275 277 279 278 280 281 279 280 281 280 281 281 280 281 283 283
278 276 276 275 274 273 272 271 272 271 270 270 269 270 270 271 271 271 273 273 273 274 275 277 279 280 280 280 280 279 280 281 280 279 279 279 280 279
278 277 277 275 275 273 272 272 271 271 270 269 270 270 269 269 271 271 272 272 272 273 274 275 277 279 279 278 279 280 278 279 281 281 282 278 279 280

GFSNE_sfc_thetae_051.txt.gz
Theta_e
299 299 297 296 295 294 292 291 289 285 285 289 290 293 294 295 295 295 295 295 295 294 294 294 293 294 294 294 294 296 297 298 299 300 304 304 309 316
298 297 296 295 294 293 292 291 291 288 285 289 289 292 293 291 293 294 294 295 293 294 293 294 294 293 293 292 293 294 296 297 298 298 302 302 306 314
296 295 294 294 292 292 292 291 290 289 285 288 290 292 291 291 291 292 293 292 293 292 293 294 293 292 291 291 291 291 293 295 296 297 299 300 302 306
293 293 292 291 291 291 291 289 289 289 287 285 287 288 287 290 290 289 289 289 290 290 291 292 291 291 291 291 290 291 292 293 295 295 296 298 298 300
292 291 291 290 289 289 289 288 288 287 287 286 285 287 287 288 287 288 287 288 289 291 290 291 291 292 292 291 291 291 291 291 293 294 294 294 295 296
292 292 290 289 288 287 285 285 285 284 284 284 284 283 284 285 286 284 284 287 286 288 289 289 290 291 291 291 291 290 290 291 292 293 293 292 292 294
291 290 289 287 285 284 283 283 283 282 281 280 280 280 281 282 282 284 283 284 286 287 287 288 289 290 291 291 291 291 291 291 292 293 293 293 292 292
288 288 288 287 286 285 284 284 282 280 279 280 280 279 281 282 284 283 283 282 281 288 286 286 289 288 289 291 289 289 289 288 290 293 293 293 292 292
288 287 286 286 286 285 284 283 283 283 282 283 281 281 281 283 282 282 282 282 282 285 285 284 288 286 289 289 290 289 289 289 289 290 293 292 292 291
287 287 286 285 284 281 281 280 281 281 283 283 282 282 282 283 282 282 283 283 284 286 286 282 286 285 288 289 290 290 289 289 289 289 290 291 292 291
286 286 286 284 281 280 279 279 279 280 283 283 282 282 283 283 283 284 282 282 281 283 286 284 285 285 287 288 290 290 290 289 289 289 289 290 291 291
285 285 283 281 279 279 278 278 277 279 279 279 280 282 283 284 284 284 284 281 281 281 285 283 284 284 282 288 290 291 291 289 288 288 289 289 290 292
283 283 284 280 279 278 278 278 278 278 278 279 280 281 282 283 284 285 285 284 282 282 286 285 284 284 284 284 287 290 292 291 290 289 288 289 290 290
282 283 284 280 279 278 278 279 278 278 280 279 279 279 279 281 282 284 285 286 287 286 288 287 284 283 283 283 283 288 290 292 292 291 292 290 289 290
283 282 280 280 279 279 279 278 278 280 278 277 277 278 279 281 283 284 286 286 287 286 288 288 286 285 285 283 283 286 286 289 290 290 290 290 290 290
283 283 282 280 280 279 280 281 281 280 278 277 277 278 280 280 280 282 282 283 283 285 287 287 287 286 284 285 285 285 287 285 289 289 288 290 290 291
281 282 281 282 280 280 280 280 280 280 278 277 277 277 277 278 279 281 281 282 281 282 283 286 287 286 286 285 283 285 286 287 288 288 287 286 289 290
280 280 280 281 280 279 279 279 279 278 278 276 277 277 276 276 277 279 280 279 279 280 281 283 284 284 285 283 283 284 287 287 287 287 287 285 286 289
278 280 281 281 281 280 279 279 278 278 277 277 276 276 276 276 277 277 278 278 278 278 281 283 283 282 280 280 283 283 284 284 285 284 284 284 284 286
280 280 280 281 281 280 280 279 278 278 278 277 276 276 276 275 275 276 277 277 277 277 279 281 282 280 278 278 280 282 282 284 284 282 283 285 285 282
282 282 283 282 281 281 281 279 278 278 277 276 276 276 276 275 275 276 276 276 276 277 277 278 280 281 282 283 280 281 281 282 282 282 282 283 284 283
283 282 283 283 282 282 281 280 278 278 278 277 277 277 277 276 275 274 275 275 275 276 277 279 282 282 282 281 281 281 281 282 281 281 280 280 280 280
284 284 284 284 283 282 280 279 278 278 278 277 276 276 276 275 276 276 275 275 275 275 276 277 280 282 282 281 280 281 280 280 282 281 281 280 280 280

GFSNE_sfc_thetae_057.txt.gz
Theta_e
292 292 292 292 293 293 289 288 285 277 280 282 282 285 286 286 288 288 286 291 294 293 294 293 293 293 293 294 294 295 295 296 296 296 296 297 298 300
291 289 290 290 289 288 287 288 286 284 280 282 282 283 285 287 289 286 286 290 290 291 292 293 293 292 292 292 292 293 294 295 295 295 295 295 296 298
289 289 289 288 288 287 288 287 284 281 278 279 281 282 281 282 284 284 286 284 285 290 291 291 292 292 293 292 292 293 293 294 294 294 294 294 295 296
288 288 289 290 287 286 283 280 279 279 278 277 278 279 279 281 281 281 284 286 284 288 290 291 291 291 291 291 292 292 292 292 292 292 292 292 293 294
288 287 287 286 282 280 280 278 278 281 278 277 277 278 279 279 279 280 281 281 285 288 289 289 289 290 290 291 291 291 291 291 291 291 291 291 291 291
288 287 287 284 281 279 279 277 279 277 277 276 277 276 277 279 279 278 279 280 281 285 286 287 288 288 289 289 290 291 291 292 291 291 291 290 290 291
286 286 285 285 288 282 279 277 277 276 276 276 275 276 276 277 277 278 279 279 279 280 280 281 282 283 284 287 288 290 290 291 291 291 292 291 290 291
283 283 282 285 284 285 284 283 280 276 275 274 275 275 276 277 280 278 276 275 273 279 277 278 281 280 282 284 288 289 290 291 291 291 291 291 291 292
282 281 282 284 282 280 280 280 279 280 279 277 275 276 277 278 277 276 276 275 276 278 278 277 280 279 282 285 288 289 289 290 290 290 290 290 290 291
281 280 280 279 279 279 278 276 277 277 278 278 278 277 277 278 278 279 278 278 279 279 281 277 278 280 281 281 286 288 289 289 290 290 290 289 289 290
282 281 281 278 281 280 277 275 276 276 279 281 281 281 282 282 282 280 278 278 276 277 278 278 277 279 280 282 282 286 288 289 289 289 290 289 289 290
280 281 281 279 280 280 274 271 271 274 276 276 276 278 279 279 282 281 279 276 276 275 277 275 278 277 277 279 282 284 284 287 287 289 290 289 289 286
280 279 279 281 280 281 280 275 273 276 277 276 276 276 276 277 277 278 279 279 278 277 281 281 280 280 280 278 281 283 284 285 281 284 289 289 289 287
279 279 280 282 282 282 280 280 280 278 271 272 273 273 274 275 276 277 279 280 280 280 282 283 281 281 280 278 279 282 285 286 284 280 280 285 288 289
280 280 282 283 282 281 282 282 279 274 272 269 271 272 273 275 277 278 279 279 280 281 284 285 283 284 282 279 279 279 282 284 283 283 283 277 279 278
280 280 278 279 276 277 277 278 276 273 272 273 270 271 273 274 274 276 275 276 277 277 281 282 283 283 280 280 280 280 280 281 285 279 276 276 278 278
280 277 276 275 275 277 277 276 276 274 272 270 269 270 272 273 273 275 275 276 275 276 276 279 281 283 284 282 279 278 279 278 284 280 279 277 279 279
278 270 268 267 270 275 276 275 274 273 272 271 268 270 270 270 272 274 275 274 273 274 275 277 279 278 280 280 282 280 282 283 283 283 280 280 283 284
278 273 269 270 272 275 278 274 273 273 273 271 269 267 268 270 269 271 273 273 273 273 274 277 278 276 274 270 281 283 280 282 280 275 277 280 281 282
280 278 274 274 274 276 278 275 273 271 269 269 266 264 263 267 266 269 271 271 272 273 273 275 275 276 275 273 275 275 282 277 277 276 278 280 281 283
278 278 277 276 276 277 277 274 270 266 264 262 263 264 263 265 265 267 268 270 270 273 272 271 274 277 279 276 273 274 274 282 279 276 277 277 279 278
279 278 278 278 278 279 278 275 271 267 266 264 265 265 260 263 263 263 264 266 271 271 272 272 275 278 279 279 276 272 274 272 278 281 281 279 276 274
280 280 279 280 279 278 278 276 275 271 270 268 265 263 259 263 263 265 264 269 269 271 270 270 273 276 278 277 277 271 270 271 274 276 275 280 281 281

GFSNE_sfc_thetae_060.txt.gz
Theta_e
289 289 289 290 290 290 290 289 284 277 278 280 281 283 284 285 286 286 285 289 293 291 291 291 291 292 292 293 294 294 294 294 295 296 297 297 297 297
289 288 288 289 288 287 288 288 287 285 279 280 280 281 282 284 285 284 284 289 289 290 291 290 290 290 291 291 291 292 292 293 294 294 295 297 297 297
287 288 288 288 287 289 288 288 283 282 277 278 279 280 278 279 281 282 283 282 283 288 289 290 291 291 291 291 291 291 291 292 292 293 295 296 296 296
287 287 287 289 285 283 281 279 279 278 277 275 276 277 277 278 279 278 282 284 282 286 288 288 288 288 289 290 290 291 291 291 292 292 292 293 294 294
287 286 286 285 283 280 279 278 278 280 277 276 276 277 276 277 278 279 280 280 283 286 286 286 286 287 287 289 290 290 291 291 291 291 292 292 292 292
287 286 286 285 281 279 279 277 278 277 276 275 276 276 276 278 277 277 277 279 280 282 283 283 285 285 287 287 287 288 289 291 291 291 291 291 291 291
285 286 285 284 286 282 279 277 277 276 275 275 274 275 275 275 275 278 277 277 277 278 278 279 280 280 281 284 286 287 288 289 290 291 291 290 291 291
285 285 284 285 285 285 284 282 279 276 274 273 273 273 274 276 277 275 275 274 273 277 276 277 279 279 280 282 285 286 288 288 290 290 290 290 291 290
282 281 281 283 283 281 282 281 279 280 278 274 273 274 275 275 276 275 275 276 276 278 279 277 278 278 281 284 286 287 288 288 289 290 290 289 290 289
281 281 280 279 279 279 278 277 277 277 277 277 276 276 276 277 277 279 279 278 279 279 278 275 278 278 280 281 285 287 288 288 289 289 290 290 289 288
282 281 280 279 281 282 278 276 277 276 279 280 280 281 281 281 281 279 276 275 274 275 277 276 276 277 279 280 281 286 288 288 288 288 288 290 289 289
281 281 283 279 281 281 276 274 272 275 275 276 276 277 278 278 280 278 277 274 275 274 276 277 278 278 276 277 280 281 281 286 287 287 288 290 290 285
280 280 280 282 281 281 281 276 274 276 276 276 276 275 275 275 276 276 277 276 275 275 279 279 278 279 279 278 277 280 281 284 285 285 287 290 290 287
280 280 280 282 282 282 282 281 281 279 274 272 272 273 273 273 274 276 277 277 278 277 279 280 279 281 280 277 277 279 282 284 284 279 277 284 288 288
281 281 282 283 283 282 282 282 279 276 273 267 271 271 272 273 276 276 277 278 278 279 281 280 280 280 281 280 279 277 278 282 285 284 283 278 277 277
281 281 280 279 275 276 276 278 276 274 273 272 270 270 272 273 272 274 274 275 275 274 279 280 279 279 279 282 280 279 280 278 281 283 277 277 277 277
282 281 279 277 277 276 275 276 276 276 273 271 269 269 271 272 271 272 273 274 273 273 274 277 279 280 282 281 278 278 280 281 282 281 278 276 277 277
280 274 274 273 273 274 273 274 274 274 273 271 268 270 269 269 269 271 273 271 272 273 273 275 277 277 276 279 281 278 280 281 282 281 280 282 282 284
280 277 276 274 272 273 274 274 274 274 272 272 271 270 268 269 267 269 270 271 271 272 272 274 275 275 273 265 278 282 278 280 279 277 278 281 281 281
280 279 278 276 274 274 275 275 275 273 270 270 269 265 261 264 265 267 268 264 269 272 273 273 272 273 273 274 274 274 282 276 277 277 279 279 281 282
279 279 279 279 277 276 276 275 274 272 269 266 267 263 259 264 264 265 265 265 266 272 271 270 272 276 276 278 272 272 273 281 280 276 277 278 278 277
280 279 279 279 278 277 276 276 274 270 269 267 264 261 259 261 262 261 260 263 268 269 271 272 274 276 278 278 277 272 272 272 278 280 281 280 276 275
281 280 279 279 279 278 278 277 276 274 273 272 268 266 259 261 262 261 261 266 267 267 269 270 272 275 276 277 276 273 272 273 274 276 274 280 282 282

GFSNE_sfc_thetae_063.txt.gz
Theta_e
288 287 287 289 289 289 290 289 287 282 278 280 280 283 283 283 284 283 283 287 289 290 289 290 290 291 291 292 292 293 294 294 295 295 296 296 297 298
288 287 286 287 287 286 286 286 285 284 281 282 281 281 281 283 283 281 281 287 287 287 287 288 289 290 290 290 291 291 292 293 293 294 294 295 296 297
287 286 286 287 286 287 288 287 286 282 279 278 279 279 278 278 279 279 281 280 281 286 286 287 288 289 289 289 289 290 290 291 291 292 293 294 295 296
286 286 286 289 285 283 281 280 279 278 277 275 276 277 277 277 277 277 280 282 281 284 286 287 287 287 287 287 288 289 290 290 290 290 291 292 293 295
286 285 286 285 283 281 280 279 278 280 277 276 275 276 276 276 277 278 278 279 281 285 284 284 285 285 286 286 287 288 289 288 289 290 291 291 291 292
286 286 285 284 283 283 280 279 278 277 276 275 275 275 275 277 276 276 276 278 278 281 282 282 283 284 285 285 286 286 287 287 288 289 290 290 290 291
284 285 285 286 287 284 280 278 277 276 275 275 274 273 274 274 274 277 275 275 276 278 277 278 278 280 280 283 284 286 286 287 288 288 290 290 290 290
283 284 286 286 285 287 285 283 279 276 274 273 273 272 273 274 273 274 274 273 273 277 276 277 279 278 280 281 284 285 287 287 288 288 289 290 290 289
282 282 282 282 283 282 284 283 282 281 279 275 272 273 271 274 275 274 275 275 275 278 277 276 278 277 280 281 284 286 286 287 288 288 289 289 289 289
284 282 280 280 280 280 278 277 277 278 278 277 275 275 276 276 276 277 277 277 277 277 277 274 277 276 279 280 284 285 286 288 288 288 289 289 289 289
282 282 281 280 282 284 279 277 277 277 279 280 281 281 281 281 280 273 273 273 272 274 277 275 275 276 278 279 280 284 286 288 288 289 288 288 288 288
280 282 284 282 282 283 276 274 273 276 275 276 276 277 278 278 279 276 273 272 273 272 276 274 276 277 275 277 278 279 280 284 286 288 288 288 288 286
281 281 281 283 283 283 282 276 274 277 276 276 276 275 275 275 275 275 275 273 273 273 277 277 275 277 278 278 277 278 278 281 283 284 287 287 287 288
281 281 281 283 284 283 282 281 282 279 276 275 273 273 273 273 274 274 276 276 276 276 278 277 276 277 277 276 277 277 278 281 283 284 283 282 286 288
283 282 283 283 284 282 283 283 280 276 274 269 271 272 272 274 275 276 276 276 277 277 279 278 277 277 277 277 278 279 279 281 282 281 285 282 277 277
283 284 282 281 281 281 278 280 278 274 274 273 271 270 272 273 272 274 272 273 273 273 277 278 277 278 277 280 281 279 280 279 280 281 279 281 280 277
280 280 280 279 279 278 278 277 276 274 273 270 269 269 270 271 271 271 272 272 270 271 273 275 277 279 278 280 276 278 279 281 282 282 280 278 278 282
280 279 278 278 276 277 276 276 275 273 274 272 269 270 270 269 268 270 271 269 269 270 271 273 274 274 275 277 282 278 278 279 281 279 279 280 279 283
281 278 277 277 276 276 276 275 274 274 275 272 271 270 270 269 266 268 268 268 268 270 271 273 273 272 271 265 276 282 277 278 278 276 278 276 279 280
282 279 278 276 277 277 276 275 275 275 272 271 270 270 267 266 265 267 267 262 265 269 271 272 272 271 271 270 272 273 281 277 273 274 274 278 279 282
280 280 280 280 278 277 277 276 274 273 270 267 271 270 265 265 263 265 264 264 263 270 269 269 272 275 275 276 271 271 273 280 280 277 276 275 275 275
281 280 280 280 280 278 277 276 274 272 270 270 269 269 266 263 263 262 259 261 266 266 268 270 273 275 276 277 276 274 273 272 277 280 281 280 275 272
279 281 281 280 280 279 278 277 276 275 273 272 272 271 265 261 263 261 260 263 266 265 266 267 271 273 274 276 276 273 272 272 274 275 276 280 281 282

GFSNE_sfc_thetae_066.txt.gz
Theta_e
288 289 288 288 289 289 290 290 289 283 282 282 282 285 285 284 284 285 283 285 287 288 288 289 290 290 291 292 292 292 293 294 294 295 295 296 297 298
288 287 287 287 288 287 287 287 287 284 282 283 283 283 282 283 283 283 281 285 285 286 286 287 288 288 289 290 290 291 292 292 293 294 294 295 296 296
287 287 287 287 287 286 286 286 285 286 282 281 281 281 280 280 281 281 281 281 282 284 285 286 287 288 288 288 288 289 290 290 291 292 292 293 294 295
287 286 286 288 285 285 284 283 283 282 279 277 278 278 278 279 279 278 280 282 282 283 285 286 286 286 286 286 286 287 287 288 289 290 291 291 292 293
287 286 285 284 283 283 282 281 280 280 279 277 277 278 278 278 278 279 279 280 281 283 283 283 284 285 285 285 286 286 287 287 289 289 289 289 289 291
286 285 285 284 283 283 283 281 280 278 278 277 276 276 276 277 278 276 277 279 278 280 281 282 283 284 284 285 285 286 287 287 287 288 288 288 289 290
285 284 284 285 287 284 282 281 279 277 277 276 275 275 275 274 274 277 276 276 277 278 279 279 280 281 282 283 284 285 285 286 287 288 288 289 289 290
283 284 284 287 286 287 287 285 280 278 276 275 275 274 274 274 276 275 275 274 273 279 278 278 280 280 281 282 283 284 286 286 287 288 288 289 289 289
282 283 283 284 284 282 283 285 283 282 279 277 275 275 273 275 276 275 275 275 275 278 278 276 279 278 281 282 283 284 285 286 287 287 289 289 288 288
282 282 282 281 281 281 281 280 279 279 279 279 277 276 276 278 277 277 277 276 277 278 279 273 278 278 280 281 283 285 286 286 287 288 289 289 289 288
283 282 282 281 282 284 281 278 278 278 281 282 282 281 281 281 281 277 274 273 272 274 278 275 277 277 279 280 282 284 286 286 287 287 287 289 289 288
283 282 284 282 283 284 280 277 274 277 277 277 276 278 280 279 280 278 275 272 272 272 277 275 275 277 275 281 281 283 284 284 285 286 287 287 288 287
282 281 281 283 284 285 284 278 277 278 277 276 276 277 277 277 277 277 277 275 273 272 277 277 276 276 276 277 280 282 283 283 284 285 286 287 287 287
283 282 282 284 284 285 284 283 281 279 277 276 275 275 275 275 276 276 277 277 277 276 278 278 276 275 275 275 275 281 283 284 284 283 285 286 285 286
285 284 284 284 285 284 284 283 281 280 278 277 276 275 276 276 277 276 277 277 277 277 278 279 278 277 277 276 275 278 280 282 284 283 284 285 284 284
283 284 284 283 281 281 282 283 282 280 279 277 275 275 274 274 274 275 274 274 273 273 277 278 278 277 276 277 278 279 281 279 283 284 284 282 284 284
278 277 281 280 279 278 279 279 279 279 277 275 273 273 273 273 273 274 273 273 271 271 273 275 277 278 277 277 276 279 279 280 282 282 283 283 284 284
280 278 279 280 279 278 278 277 278 278 277 275 274 274 273 272 272 272 273 271 270 271 272 273 274 274 275 277 281 279 279 279 280 282 282 281 281 283
282 281 279 280 280 278 278 277 277 277 277 275 275 274 272 272 270 271 271 271 270 271 272 273 273 272 270 269 276 282 278 279 278 279 280 280 280 281
282 281 281 279 277 278 278 278 277 277 275 274 273 273 272 271 270 270 270 268 269 270 271 273 272 272 271 271 273 276 279 279 277 276 278 280 282 282
279 280 281 281 279 278 279 278 277 276 275 271 273 272 270 271 269 269 269 265 265 270 270 270 272 274 275 276 272 274 278 279 280 279 279 277 278 279
271 272 274 279 280 281 279 278 277 276 275 272 271 272 271 270 270 268 266 267 269 270 269 271 272 274 275 277 276 275 277 277 278 280 281 281 278 276
268 269 271 272 273 278 280 279 277 276 276 274 273 272 270 269 269 269 267 267 268 269 269 269 270 273 274 276 275 276 276 276 277 277 278 280 281 282